TimeEDT,TemperatureF,Dew PointF,Humidity,Sea Level PressureIn,VisibilityMPH,Wind Direction,Wind SpeedMPH,Gust SpeedMPH,PrecipitationIn,Events,Conditions,WindDirDegrees,DateUTC
12:14 AM,58.1,50.9,77,30.22,10.0,West,3.5,-,N/A,,Clear,260,2013-08-17 04:14:00
12:35 AM,56.8,49.8,77,30.22,10.0,Calm,Calm,-,N/A,,Clear,0,2013-08-17 04:35:00
12:55 AM,57.4,50.7,78,30.22,10.0,Calm,Calm,-,N/A,,Clear,0,2013-08-17 04:55:00
1:14 AM,56.7,50.2,79,30.22,10.0,Calm,Calm,-,N/A,,Clear,0,2013-08-17 05:14:00
1:35 AM,56.3,49.6,78,30.22,10.0,Calm,Calm,-,N/A,,Clear,0,2013-08-17 05:35:00
1:55 AM,54.5,52.2,92,30.22,10.0,Calm,Calm,-,N/A,,Clear,0,2013-08-17 05:55:00
2:14 AM,54.7,54.1,98,30.23,10.0,Calm,Calm,-,N/A,,Clear,0,2013-08-17 06:14:00
2:35 AM,54.7,54.1,98,30.23,10.0,Calm,Calm,-,N/A,,Clear,0,2013-08-17 06:35:00
2:55 AM,53.4,52.9,98,30.23,10.0,NNE,6.9,-,N/A,,Clear,30,2013-08-17 06:55:00
3:14 AM,52.7,52.7,100,30.23,10.0,Calm,Calm,-,N/A,,Clear,0,2013-08-17 07:14:00
3:35 AM,52.2,52.2,100,30.23,10.0,Calm,Calm,-,N/A,,Clear,0,2013-08-17 07:35:00
3:54 AM,52.0,52.0,100,30.23,10.0,Calm,Calm,-,N/A,,Clear,0,2013-08-17 07:54:00
4:14 AM,52.5,52.5,100,30.24,10.0,West,3.5,-,N/A,,Clear,270,2013-08-17 08:14:00
4:35 AM,52.0,52.0,100,30.24,10.0,WNW,5.8,-,N/A,,Clear,290,2013-08-17 08:35:00
4:54 AM,51.3,51.3,100,30.24,10.0,Calm,Calm,-,N/A,,Clear,0,2013-08-17 08:54:00
5:15 AM,50.9,50.9,100,30.24,10.0,Calm,Calm,-,N/A,,Clear,0,2013-08-17 09:15:00
5:35 AM,50.9,50.9,100,30.24,10.0,Calm,Calm,-,N/A,,Clear,0,2013-08-17 09:35:00
5:54 AM,50.2,50.2,100,30.25,10.0,Calm,Calm,-,N/A,,Clear,0,2013-08-17 09:54:00
6:15 AM,49.6,49.6,100,30.25,7.0,Calm,Calm,-,N/A,,Clear,0,2013-08-17 10:15:00
6:35 AM,49.6,49.6,100,30.25,10.0,WNW,4.6,-,N/A,,Clear,300,2013-08-17 10:35:00
6:54 AM,49.5,49.5,100,30.26,10.0,West,3.5,-,N/A,,Clear,270,2013-08-17 10:54:00
7:15 AM,48.9,48.9,100,30.26,10.0,Calm,Calm,-,N/A,,Clear,0,2013-08-17 11:15:00
7:35 AM,49.5,49.5,100,30.27,10.0,Calm,Calm,-,N/A,,Clear,0,2013-08-17 11:35:00
7:54 AM,50.9,50.9,100,30.27,10.0,WNW,4.6,-,N/A,,Clear,300,2013-08-17 11:54:00
8:15 AM,53.1,52.7,99,30.27,10.0,Calm,Calm,-,N/A,,Clear,0,2013-08-17 12:15:00
8:34 AM,55.9,54.1,94,30.27,10.0,NNE,6.9,-,N/A,,Clear,30,2013-08-17 12:34:00
8:55 AM,58.3,54.3,87,30.27,10.0,Calm,Calm,-,N/A,,Clear,0,2013-08-17 12:55:00
9:14 AM,61.0,51.8,72,30.27,10.0,Calm,Calm,-,N/A,,Clear,0,2013-08-17 13:14:00
9:34 AM,63.3,51.8,66,30.27,10.0,Calm,Calm,-,N/A,,Clear,0,2013-08-17 13:34:00
9:55 AM,66.0,51.1,59,30.27,10.0,Calm,Calm,-,N/A,,Clear,0,2013-08-17 13:55:00
10:14 AM,69.4,50.9,52,30.27,10.0,Calm,Calm,-,N/A,,Clear,0,2013-08-17 14:14:00
10:35 AM,70.9,51.3,50,30.27,10.0,Calm,Calm,-,N/A,,Clear,0,2013-08-17 14:35:00
10:55 AM,72.9,50.5,45,30.28,10.0,Calm,Calm,-,N/A,,Clear,0,2013-08-17 14:55:00
11:14 AM,75.6,50.4,41,30.28,10.0,Calm,Calm,-,N/A,,Clear,0,2013-08-17 15:14:00
11:35 AM,76.6,45.5,33,30.28,10.0,East,3.5,-,N/A,,Clear,90,2013-08-17 15:35:00
11:55 AM,77.0,45.3,32,30.27,10.0,SSE,6.9,-,N/A,,Clear,160,2013-08-17 15:55:00
12:14 PM,77.7,44.8,31,30.27,10.0,East,5.8,-,N/A,,Clear,90,2013-08-17 16:14:00
12:35 PM,77.0,43.3,30,30.26,10.0,Calm,Calm,-,N/A,,Clear,0,2013-08-17 16:35:00
12:54 PM,78.4,43.9,29,30.26,10.0,SSW,4.6,-,N/A,,Scattered Clouds,200,2013-08-17 16:54:00
1:14 PM,79.5,43.5,28,30.25,10.0,ESE,5.8,-,N/A,,Mostly Cloudy,110,2013-08-17 17:14:00
1:35 PM,78.8,43.2,28,30.25,10.0,Calm,Calm,-,N/A,,Scattered Clouds,0,2013-08-17 17:35:00
1:54 PM,77.2,43.3,30,30.25,10.0,East,3.5,-,N/A,,Clear,100,2013-08-17 17:54:00
2:14 PM,77.0,43.3,30,30.24,10.0,Calm,Calm,-,N/A,,Scattered Clouds,0,2013-08-17 18:14:00
2:35 PM,78.4,43.9,29,30.23,10.0,NNE,4.6,-,N/A,,Mostly Cloudy,30,2013-08-17 18:35:00
2:54 PM,78.6,43.7,29,30.23,10.0,NE,4.6,-,N/A,,Mostly Cloudy,50,2013-08-17 18:54:00
3:15 PM,80.4,42.8,26,30.22,10.0,NNW,5.8,-,N/A,,Overcast,340,2013-08-17 19:15:00
3:35 PM,80.2,41.5,25,30.22,10.0,North,4.6,-,N/A,,Overcast,10,2013-08-17 19:35:00
3:54 PM,81.1,41.7,25,30.21,10.0,ENE,5.8,-,N/A,,Mostly Cloudy,70,2013-08-17 19:54:00
4:15 PM,81.0,39.4,23,30.21,10.0,South,3.5,-,N/A,,Mostly Cloudy,180,2013-08-17 20:15:00
4:35 PM,82.0,39.6,22,30.21,10.0,South,5.8,-,N/A,,Scattered Clouds,170,2013-08-17 20:35:00
4:54 PM,80.1,39.4,23,30.21,10.0,Calm,Calm,-,N/A,,Clear,0,2013-08-17 20:54:00
5:15 PM,81.5,41.2,24,30.21,10.0,South,6.9,-,N/A,,Scattered Clouds,190,2013-08-17 21:15:00
5:35 PM,81.5,40.8,24,30.20,10.0,South,8.1,-,N/A,,Mostly Cloudy,180,2013-08-17 21:35:00
5:54 PM,81.0,41.7,25,30.20,10.0,South,8.1,-,N/A,,Scattered Clouds,190,2013-08-17 21:54:00
6:15 PM,80.6,40.6,24,30.20,10.0,SSW,5.8,-,N/A,,Clear,210,2013-08-17 22:15:00
6:35 PM,80.1,41.7,26,30.19,10.0,SW,3.5,-,N/A,,Scattered Clouds,220,2013-08-17 22:35:00
6:54 PM,80.1,41.5,25,30.19,10.0,South,5.8,-,N/A,,Scattered Clouds,170,2013-08-17 22:54:00
7:15 PM,79.0,41.5,26,30.19,10.0,Calm,Calm,-,N/A,,Clear,0,2013-08-17 23:15:00
7:35 PM,78.4,42.6,28,30.19,10.0,South,6.9,-,N/A,,Clear,190,2013-08-17 23:35:00
7:54 PM,77.0,46.0,33,30.19,10.0,Calm,Calm,-,N/A,,Clear,0,2013-08-17 23:54:00
8:15 PM,72.9,51.3,47,30.19,10.0,SW,3.5,-,N/A,,Clear,220,2013-08-18 00:15:00
8:35 PM,71.8,50.2,46,30.19,10.0,West,3.5,-,N/A,,Clear,270,2013-08-18 00:35:00
8:54 PM,68.9,51.6,54,30.19,10.0,West,4.6,-,N/A,,Clear,270,2013-08-18 00:54:00
9:15 PM,67.5,51.3,56,30.20,10.0,North,4.6,-,N/A,,Clear,360,2013-08-18 01:15:00
9:34 PM,63.7,51.6,65,30.21,10.0,NNW,3.5,-,N/A,,Clear,340,2013-08-18 01:34:00
9:54 PM,63.1,52.0,67,30.21,10.0,West,4.6,-,N/A,,Clear,280,2013-08-18 01:54:00
10:15 PM,63.0,51.4,66,30.21,10.0,Calm,Calm,-,N/A,,Clear,0,2013-08-18 02:15:00
10:34 PM,61.0,52.0,72,30.22,10.0,Calm,Calm,-,N/A,,Clear,0,2013-08-18 02:34:00
10:54 PM,61.2,51.8,71,30.21,10.0,WNW,3.5,-,N/A,,Clear,300,2013-08-18 02:54:00
11:15 PM,61.5,50.9,68,30.21,10.0,Calm,Calm,-,N/A,,Clear,0,2013-08-18 03:15:00
11:34 PM,59.0,51.1,75,30.21,10.0,Calm,Calm,-,N/A,,Clear,0,2013-08-18 03:34:00
11:55 PM,58.3,50.7,76,30.21,10.0,Calm,Calm,-,N/A,,Clear,0,2013-08-18 03:55:00